When you browse on this site, cookies collect data to enhance your experience and personalize the content and advertising you see.
Visit our Privacy Policy to learn more. By continuing to use the site, you agree to this use of cookies and data.
  • In Deutschland
  • Länderverzeichnis
  • Für 7 Tage
  • Wassertemperatur
  • Satellitenkarten
  • Wetterkarte
  • Widgets
  • user-avatar
    Anmelden

    Stündliche Wetter Mendoza

    Heute, 23 März, Samstag

    Zeit Temperatur Niederschläge Wind Luftdruck Luftfeuchtigkeit
    00:00 +21°C° 0 mm 2 m/S 699 mmHg 48%
    01:00 +20°C° 0 mm 2 m/S 698 mmHg 52%
    02:00 +20°C° 0 mm 2 m/S 698 mmHg 54%
    03:00 +20°C° 0 mm 1 m/S 698 mmHg 57%
    04:00 +19°C° 0 mm 1 m/S 698 mmHg 59%
    05:00 +20°C° 0 mm 1 m/S 698 mmHg 55%
    06:00 +20°C° 0 mm 2 m/S 698 mmHg 51%
    07:00 +21°C° 0 mm 2 m/S 698 mmHg 48%
    08:00 +24°C° 0 mm 3 m/S 698 mmHg 43%
    09:00 +26°C° 0 mm 3 m/S 698 mmHg 38%
    10:00 +28°C° 0 mm 4 m/S 698 mmHg 33%
    11:00 +28°C° 0 mm 3 m/S 698 mmHg 32%
    12:00 +29°C° 0 mm 3 m/S 698 mmHg 31%
    13:00 +30°C° 0 mm 2 m/S 698 mmHg 30%
    14:00 +30°C° 0 mm 2 m/S 698 mmHg 29%
    15:00 +30°C° 0 mm 2 m/S 698 mmHg 29%
    16:00 +31°C° 0 mm 2 m/S 698 mmHg 29%
    17:00 +29°C° 0 mm 1 m/S 698 mmHg 33%
    18:00 +27°C° 0 mm 1 m/S 699 mmHg 37%
    19:00 +26°C° 0 mm 1 m/S 699 mmHg 41%
    20:00 +26°C° 0 mm 1 m/S 700 mmHg 44%
    21:00 +25°C° 0 mm 2 m/S 700 mmHg 46%
    22:00 +25°C° 0 mm 2 m/S 701 mmHg 49%
    23:00 +24°C° 0 mm 3 m/S 701 mmHg 48%

    Morgen, 24 März, Sonntag

    Zeit Temperatur Niederschläge Wind Luftdruck Luftfeuchtigkeit
    00:00 +23°C° 0 mm 4 m/S 701 mmHg 48%
    01:00 +23°C° 0 mm 5 m/S 701 mmHg 47%
    02:00 +22°C° 0 mm 5 m/S 702 mmHg 44%
    03:00 +22°C° 0 mm 5 m/S 702 mmHg 40%
    04:00 +21°C° 0 mm 5 m/S 702 mmHg 37%
    05:00 +21°C° 0 mm 5 m/S 702 mmHg 36%
    06:00 +21°C° 0 mm 4 m/S 702 mmHg 36%
    07:00 +21°C° 0 mm 4 m/S 703 mmHg 36%
    08:00 +22°C° 0 mm 4 m/S 703 mmHg 32%
    09:00 +23°C° 0 mm 4 m/S 703 mmHg 29%
    10:00 +25°C° 0 mm 4 m/S 703 mmHg 26%
    11:00 +25°C° 0 mm 4 m/S 702 mmHg 26%
    12:00 +26°C° 0 mm 4 m/S 702 mmHg 26%
    13:00 +27°C° 0 mm 4 m/S 701 mmHg 25%
    14:00 +27°C° 0 mm 4 m/S 700 mmHg 27%
    15:00 +26°C° 0 mm 3 m/S 700 mmHg 29%
    16:00 +26°C° 0 mm 3 m/S 699 mmHg 31%
    17:00 +25°C° 0 mm 2 m/S 700 mmHg 34%
    18:00 +24°C° 0 mm 2 m/S 700 mmHg 37%
    19:00 +23°C° 0 mm 2 m/S 700 mmHg 40%
    20:00 +23°C° 0 mm 2 m/S 700 mmHg 41%
    21:00 +21°C° 0 mm 2 m/S 700 mmHg 42%
    22:00 +21°C° 0 mm 2 m/S 701 mmHg 43%
    23:00 +20°C° 0 mm 2 m/S 700 mmHg 45%

    übermorgen, 25 März, Montag

    Zeit Temperatur Niederschläge Wind Luftdruck Luftfeuchtigkeit
    00:00 +20°C° 0 mm 2 m/S 700 mmHg 47%
    01:00 +19°C° 0 mm 3 m/S 700 mmHg 48%
    02:00 +19°C° 0 mm 3 m/S 699 mmHg 50%
    03:00 +18°C° 0 mm 3 m/S 699 mmHg 51%
    04:00 +18°C° 0 mm 3 m/S 698 mmHg 53%
    05:00 +18°C° 0 mm 4 m/S 699 mmHg 51%
    06:00 +19°C° 0 mm 4 m/S 699 mmHg 49%
    07:00 +19°C° 0 mm 5 m/S 700 mmHg 46%
    08:00 +20°C° 0 mm 5 m/S 700 mmHg 43%
    09:00 +22°C° 0 mm 4 m/S 700 mmHg 39%
    10:00 +23°C° 0 mm 4 m/S 701 mmHg 36%
    11:00 +25°C° 0 mm 4 m/S 700 mmHg 35%
    12:00 +26°C° 0 mm 4 m/S 700 mmHg 35%
    13:00 +27°C° 0 mm 4 m/S 699 mmHg 34%
    14:00 +27°C° 0 mm 4 m/S 699 mmHg 35%
    15:00 +27°C° 0 mm 4 m/S 699 mmHg 35%
    16:00 +27°C° 0 mm 4 m/S 699 mmHg 36%
    17:00 +26°C° 0 mm 4 m/S 699 mmHg 40%
    18:00 +25°C° 0 mm 4 m/S 700 mmHg 43%
    19:00 +23°C° 0 mm 4 m/S 701 mmHg 47%
    20:00 +22°C° 0.2 mm 4 m/S 701 mmHg 55%
    21:00 +21°C° 0.2 mm 4 m/S 701 mmHg 63%
    22:00 +20°C° 0.2 mm 4 m/S 702 mmHg 70%
    23:00 +19°C° 0.1 mm 5 m/S 702 mmHg 71%

    26 März, Dienstag

    Zeit Temperatur Niederschläge Wind Luftdruck Luftfeuchtigkeit
    00:00 +19°C° 0.1 mm 5 m/S 701 mmHg 72%
    01:00 +17°C° 0.1 mm 5 m/S 701 mmHg 74%
    02:00 +17°C° 0.1 mm 6 m/S 701 mmHg 74%
    03:00 +16°C° 0.1 mm 6 m/S 701 mmHg 74%
    04:00 +16°C° 0.1 mm 6 m/S 701 mmHg 74%
    05:00 +16°C° 0 mm 6 m/S 702 mmHg 73%
    06:00 +16°C° 0 mm 6 m/S 702 mmHg 71%
    07:00 +16°C° 0 mm 6 m/S 702 mmHg 70%
    08:00 +16°C° 0 mm 6 m/S 702 mmHg 67%
    09:00 +17°C° 0 mm 6 m/S 702 mmHg 65%
    10:00 +17°C° 0 mm 6 m/S 702 mmHg 62%
    11:00 +17°C° 0 mm 6 m/S 702 mmHg 61%
    12:00 +17°C° 0 mm 6 m/S 702 mmHg 59%
    13:00 +19°C° 0 mm 6 m/S 701 mmHg 57%
    14:00 +19°C° 0 mm 6 m/S 701 mmHg 58%
    15:00 +19°C° 0 mm 6 m/S 701 mmHg 59%
    16:00 +19°C° 0 mm 5 m/S 701 mmHg 59%
    17:00 +17°C° 0 mm 5 m/S 701 mmHg 61%
    18:00 +16°C° 0 mm 5 m/S 702 mmHg 64%
    19:00 +17°C° 0 mm 4 m/S 702 mmHg 66%
    20:00 +15°C° 0 mm 4 m/S 703 mmHg 67%
    21:00 +16°C° 0 mm 3 m/S 703 mmHg 68%
    22:00 +16°C° 0 mm 3 m/S 703 mmHg 68%
    23:00 +16°C° 0 mm 2 m/S 703 mmHg 71%

    27 März, Mittwoch

    Zeit Temperatur Niederschläge Wind Luftdruck Luftfeuchtigkeit
    00:00 +15°C° 0 mm 2 m/S 702 mmHg 73%
    01:00 +15°C° 0 mm 1 m/S 702 mmHg 75%
    02:00 +14°C° 0 mm 1 m/S 702 mmHg 78%
    03:00 +14°C° 0 mm 1 m/S 701 mmHg 81%
    04:00 +14°C° 0 mm 1 m/S 701 mmHg 84%
    05:00 +14°C° 0 mm 1 m/S 701 mmHg 82%
    06:00 +15°C° 0 mm 1 m/S 702 mmHg 80%
    07:00 +15°C° 0 mm 1 m/S 702 mmHg 78%
    08:00 +17°C° 0 mm 2 m/S 702 mmHg 71%
    09:00 +19°C° 0 mm 3 m/S 702 mmHg 65%
    10:00 +20°C° 0 mm 3 m/S 702 mmHg 59%
    11:00 +21°C° 0 mm 4 m/S 702 mmHg 56%
    12:00 +22°C° 0 mm 4 m/S 701 mmHg 54%
    13:00 +23°C° 0 mm 4 m/S 701 mmHg 51%
    14:00 +23°C° 0 mm 4 m/S 701 mmHg 50%
    15:00 +24°C° 0 mm 3 m/S 701 mmHg 50%
    16:00 +25°C° 0 mm 3 m/S 700 mmHg 49%
    17:00 +24°C° 0 mm 3 m/S 701 mmHg 51%
    18:00 +23°C° 0 mm 2 m/S 701 mmHg 52%
    19:00 +21°C° 0 mm 2 m/S 702 mmHg 54%
    20:00 +21°C° 0 mm 2 m/S 702 mmHg 56%
    21:00 +20°C° 0 mm 2 m/S 702 mmHg 58%
    22:00 +20°C° 0 mm 2 m/S 702 mmHg 60%
    23:00 +19°C° 0 mm 2 m/S 701 mmHg 63%

    28 März, Donnerstag

    Zeit Temperatur Niederschläge Wind Luftdruck Luftfeuchtigkeit
    00:00 +19°C° 0 mm 1 m/S 701 mmHg 66%
    01:00 +17°C° 0 mm 0 m/S 701 mmHg 69%
    02:00 +19°C° 0 mm 1 m/S 700 mmHg 70%
    03:00 +18°C° 0 mm 1 m/S 700 mmHg 71%
    04:00 +18°C° 0 mm 1 m/S 700 mmHg 72%
    05:00 +19°C° 0 mm 1 m/S 700 mmHg 69%
    06:00 +18°C° 0 mm 2 m/S 701 mmHg 65%
    07:00 +19°C° 0 mm 2 m/S 701 mmHg 62%
    08:00 +21°C° 0 mm 3 m/S 701 mmHg 57%
    09:00 +22°C° 0 mm 3 m/S 701 mmHg 51%
    10:00 +25°C° 0 mm 4 m/S 701 mmHg 46%
    11:00 +26°C° 0 mm 4 m/S 701 mmHg 43%
    12:00 +27°C° 0 mm 4 m/S 700 mmHg 40%
    13:00 +28°C° 0 mm 3 m/S 700 mmHg 37%
    14:00 +28°C° 0 mm 3 m/S 700 mmHg 36%
    15:00 +28°C° 0 mm 3 m/S 700 mmHg 35%
    16:00 +28°C° 0 mm 3 m/S 700 mmHg 34%
    17:00 +27°C° 0 mm 2 m/S 700 mmHg 38%
    18:00 +25°C° 0 mm 2 m/S 700 mmHg 41%
    19:00 +24°C° 0 mm 1 m/S 700 mmHg 44%
    20:00 +23°C° 0 mm 1 m/S 700 mmHg 47%
    21:00 +23°C° 0 mm 1 m/S 700 mmHg 49%
    22:00 +20°C° 0 mm 0 m/S 700 mmHg 51%
    23:00 +20°C° 0 mm 0 m/S 700 mmHg 53%
    Mehr zeigen